Tracking 28790 objects as of 18-Apr-2024
HD Live streaming from Space Station
objects crossing your sky now

CZ-4C DEB

Track CZ-4C DEB now!
10-day predictions


NORAD ID: 42672
Int'l Code: 2015-069E
Perigee: 570.2 km
Apogee: 754.4 km
Inclination: 98.2 °
Period: 97.8 minutes
Semi major axis: 7033 km
RCS: Unknown
Launch date: November 26, 2015
Source: People's Republic of China (PRC)
Launch site: Taiyaun Space Center, China (TSC)

Note: This is SATELLITE DEBRIS
Your satellite tracking list
Your tracking list is empty




NASA's NSSDC Master Catalog

Two Line Element Set (TLE):
1 42672U 15069E   24109.07163820  .00030998  00000-0  43224-2 0  9991
2 42672  98.2160  56.0074 0130929   6.6722 353.6188 14.71842541441569
Source of the keplerian elements: AFSPC